Weather History for Fort Wayne, IN

Change the Weather History Date:

Monday, May 27, 2013

  Actual Average Record
Temperature  
Mean Temperature 57 °F 64 °F  
Max Temperature 63 °F 75 °F 99 °F (1911)
Min Temperature 50 °F 53 °F 31 °F (1961)
Degree Days  
Heating Degree Days 8 4  
Month to date heating degree days 111 179  
Since 1 July heating degree days 5981 6061  
Cooling Degree Days 0 3  
Month to date cooling degree days 69 37  
Year to date cooling degree days 69 45  
Growing Degree Days 6 (Base 50)    
Moisture  
Dew Point 53 °F    
Average Humidity 68    
Maximum Humidity 100    
Minimum Humidity 36    
Precipitation  
Precipitation 1.72 in 0.16 in 1.72 in (2013)
Month to date precipitation 2.25 3.60  
Year to date precipitation 16.98 14.13  
Snow  
Snow 0.00 in 0.00 in 0.00 in (2002)
Month to date snowfall 0.0 0.0  
Since 1 July snowfall 38.5 33.5  
Snow Depth 0.00 in    
Sea Level Pressure  
Sea Level Pressure 30.05 in    
Wind  
Wind Speed 10 mph (East)    
Max Wind Speed 20 mph    
Max Gust Speed 26 mph    
Visibility 6 miles    
Events Rain , Thunderstorm    
T = Trace of Precipitation, MM = Missing Value Source: NWS Daily Summary

Daily Weather History Graph

Daily Weather History Graph

Search for Another Location

Airport:

Trip Planner

Search our weather history database for the weather conditions in past years. The results will help you decide how hot, cold, wet, or windy it might be!

Date:

Astronomy

May. 27, 2013 Rise Set
Actual Time 6:13 AM EDT 9:02 PM EDT
Civil Twilight 5:41 AM EDT 9:35 PM EDT
Nautical Twilight 5:00 AM EDT 10:16 PM EDT
Astronomical Twilight 4:13 AM EDT 11:03 PM EDT
Moon 11:40 PM EDT 8:50 AM EDT
Length of Visible Light 15h 54m
Length of Day
14h 49m
Waning Gibbous, 91% of the Moon is Illuminated
May 27
Waning Gibbous
May 31
Last Quarter
Jun 8
New
Jun 16
First Quarter
Jun 23
Full

Hourly Weather History & Observations

Time (EDT) Temp. Dew Point Humidity Pressure Visibility Wind Dir Wind Speed Gust Speed Precip Events Conditions
12:54 AM 62.1 °F 36.0 °F 38% 30.21 in 10.0 mi ESE 6.9 mph - 0.00 in   Overcast
1:54 AM 61.0 °F 34.0 °F 36% 30.19 in 10.0 mi ESE 10.4 mph - N/A   Overcast
2:54 AM 59.0 °F 37.0 °F 44% 30.19 in 10.0 mi East 8.1 mph - N/A   Overcast
3:54 AM 55.9 °F 42.1 °F 60% 30.19 in 10.0 mi ESE 8.1 mph - 0.00 in Rain Light Rain
4:54 AM 53.1 °F 46.0 °F 77% 30.21 in 5.0 mi ESE 5.8 mph - 0.04 in Rain Rain
5:54 AM 50.0 °F 48.0 °F 93% 30.20 in 4.0 mi ESE 12.7 mph - 0.15 in Rain Rain
6:54 AM 51.1 °F 48.0 °F 89% 30.19 in 7.0 mi ESE 15.0 mph - 0.12 in Rain Light Rain
7:54 AM 51.1 °F 46.9 °F 86% 30.20 in 6.0 mi ESE 11.5 mph 19.6 mph 0.03 in Rain Light Rain
8:54 AM 51.1 °F 48.0 °F 89% 30.20 in 9.0 mi ESE 11.5 mph - 0.05 in Rain Light Rain
9:54 AM 52.0 °F 48.9 °F 89% 30.18 in 10.0 mi ESE 12.7 mph 24.2 mph 0.01 in   Overcast
10:54 AM 54.0 °F 50.0 °F 86% 30.15 in 10.0 mi ESE 17.3 mph 25.3 mph N/A   Overcast
11:54 AM 55.9 °F 52.0 °F 87% 30.12 in 10.0 mi ESE 13.8 mph 20.7 mph N/A   Overcast
12:54 PM 57.9 °F 52.0 °F 81% 30.11 in 10.0 mi ESE 12.7 mph 20.7 mph N/A   Overcast
1:11 PM 57.2 °F 51.8 °F 82% 30.14 in 10.0 mi Variable 4.6 mph - N/A   Overcast
1:36 PM 57.2 °F 55.4 °F 94% 30.10 in 7.0 mi East 10.4 mph - 0.02 in Rain Light Rain
1:54 PM 57.9 °F 55.0 °F 90% 30.09 in 7.0 mi East 9.2 mph - 0.04 in Rain Light Rain
2:54 PM 60.1 °F 57.0 °F 90% 30.06 in 10.0 mi East 11.5 mph - 0.08 in Rain Light Rain
3:54 PM 60.1 °F 57.9 °F 93% 30.04 in 7.0 mi East 9.2 mph - 0.02 in Rain Light Rain
4:12 PM 60.8 °F 57.2 °F 88% 30.03 in 1.5 mi East 9.2 mph - 0.03 in Rain Heavy Rain
4:27 PM 60.8 °F 59.0 °F 94% 30.03 in 3.0 mi ENE 8.1 mph - 0.14 in Rain Rain
4:45 PM 60.8 °F 59.0 °F 94% 30.02 in 2.0 mi ENE 9.2 mph - 0.21 in Rain Rain
4:54 PM 60.1 °F 59.0 °F 96% 30.01 in 2.0 mi ENE 11.5 mph - 0.26 in Rain Rain
5:08 PM 59.0 °F 57.2 °F 94% 30.01 in 3.0 mi ENE 10.4 mph - 0.01 in Rain Light Rain
5:43 PM 57.2 °F 57.2 °F 100% 29.99 in 2.0 mi East 12.7 mph - 0.11 in Rain Heavy Rain
5:54 PM 57.9 °F 57.0 °F 97% 29.99 in 2.0 mi ENE 13.8 mph - 0.23 in Rain Heavy Rain
6:04 PM 57.2 °F 57.2 °F 100% 29.98 in 5.0 mi ENE 12.7 mph - 0.02 in Rain Light Rain
6:54 PM 57.9 °F 57.0 °F 97% 29.97 in 8.0 mi East 11.5 mph - 0.03 in   Overcast
7:50 PM 57.2 °F 57.2 °F 100% 29.96 in 5.0 mi East 11.5 mph - 0.01 in Rain , Thunderstorm Light Thunderstorms and Rain
7:54 PM 57.9 °F 57.0 °F 97% 29.95 in 1.5 mi East 8.1 mph - 0.07 in Rain , Thunderstorm Light Thunderstorms and Rain
7:59 PM 57.2 °F 57.2 °F 100% 29.95 in 4.0 mi East 10.4 mph - 0.07 in Rain , Thunderstorm Light Thunderstorms and Rain
8:22 PM 57.2 °F 57.2 °F 100% 29.96 in 1.5 mi East 6.9 mph - 0.17 in Rain , Thunderstorm Light Thunderstorms and Rain
8:35 PM 57.2 °F 57.2 °F 100% 29.95 in 4.0 mi ENE 6.9 mph - 0.29 in Rain , Thunderstorm Light Thunderstorms and Rain
8:54 PM 57.9 °F 57.0 °F 97% 29.96 in 3.0 mi ENE 8.1 mph - 0.30 in Rain Light Rain
9:08 PM 57.2 °F 57.2 °F 100% 29.95 in 2.0 mi East 5.8 mph - 0.06 in Rain Heavy Rain
9:23 PM 57.2 °F 57.2 °F 100% 29.95 in 3.0 mi East 5.8 mph - 0.17 in Rain Heavy Rain
9:51 PM 59.0 °F 57.2 °F 94% 29.94 in 3.0 mi East 9.2 mph - 0.23 in Rain Light Rain
9:54 PM 59.0 °F 57.9 °F 96% 29.94 in 3.0 mi East 8.1 mph - 0.24 in Rain Light Rain
10:17 PM 60.8 °F 60.8 °F 100% 29.94 in 4.0 mi Variable 3.5 mph - 0.04 in Rain Light Rain
10:31 PM 60.8 °F 59.0 °F 94% 29.94 in 4.0 mi ENE 3.5 mph - 0.05 in Rain Light Rain
10:54 PM 61.0 °F 60.1 °F 97% 29.94 in 4.0 mi NNE 3.5 mph - 0.05 in   Overcast
11:54 PM 62.1 °F 62.1 °F 100% 29.94 in 3.0 mi SE 4.6 mph - N/A   Mostly Cloudy